Regional Weather Roundup
Issued by NWS Newport/Morehead, NC

Current Version | Previous Version | Graphics & Text | Print | Product List | Glossary Off
Versions: 1 2 3 4 5 6 7 8 9 10 11 12 13 14 15 16 17 18 19 20 21 22 23 24 25 26 27 28 29 30 31 32 33 34 35 36 37 38 39 40 41 42 43 44 45 46 47 48 49 50
000 ASUS42 KMHX 242313 RWRMHX WEATHER ROUNDUP FOR EASTERN NORTH CAROLINA NATIONAL WEATHER SERVICE NEWPORT/MOREHEAD CITY NC 600 PM EST FRI FEB 24 2017 NOTE: "FAIR" INDICATES FEW OR NO CLOUDS BELOW 12,000 FEET WITH NO SIGNIFICANT WEATHER AND/OR OBSTRUCTIONS TO VISIBILITY NCZ015>017-031-032-045>047-102-103-250000- NORTH COAST CITY SKY/WX TMP DP RH WIND PRES REMARKS EDENTON MOCLDY 69 60 73 E3 29.88R ELIZABETH CITY CLEAR 66 58 75 SE9 29.88S KITTY HAWK NOT AVBL MANTEO CLEAR 65 59 81 SE6 29.89S $$ NCZ045>047-081-094-103-104-250000- CENTRAL COAST CITY SKY/WX TMP DP RH WIND PRES REMARKS FRISCO CLOUDY 70 59 68 E7 29.87S HAZE $$ NCZ095-097-098-100-101-250000- SOUTHERN COAST CITY SKY/WX TMP DP RH WIND PRES REMARKS BEAUFORT CLEAR 70 59 68 E3 29.85F CEDAR ISLAND NOT AVBL JACKSONVILLE PTCLDY 70 62 76 SE8 29.85S PINEY ISLAND CLEAR N/A N/A N/A E6 29.86S WILMINGTON CLEAR 70 61 73 E6 29.85S $$ NCZ011>013-027>030-043-044-078>080-089-090>093-098-250000- COASTAL PLAIN CITY SKY/WX TMP DP RH WIND PRES REMARKS AHOSKIE N/A 70 57 64 SE3 29.85S CLINTON CLEAR 75 57 53 CALM 29.83S ELIZABETHTOWN CLEAR 75 58 55 SE3 29.83S GOLDSBORO CLEAR 74 56 53 E9 29.81S GREENVILLE CLEAR 72 61 68 SE7 29.87S HAVELOCK NOT AVBL KENANSVILLE CLEAR 73 57 56 SE5 29.83S KINSTON PTCLDY 72 61 68 SE9 29.85S NEW BERN CLEAR 69 61 75 SE5 29.87S RICHLANDS PTCLDY 70 60 70 VRB5 29.85S ROCKY MOUNT CLEAR 72 57 59 SE3 29.83S WASHINGTON PTCLDY 70 59 69 SE9 29.87R WHITEVILLE CLEAR 74 58 56 S5 29.83R $$ AMZ130-135-150-152-154-156-158-170-250-252-270-ANZ085-086-088-633-658-670-250000- MARINE OBSERVATIONS STATION/POSITION TIME TEMP WIND PRES WAVE SWELL AIR SEA DIR/SP/G HT/PER HT/PER (UTC) (F) (DEG/KT/KT) (MB) (FT/S) (FT/S) CHESAPEAKE LIGHT NOT AVBL 64 E VA BEACH 2250 60 55 130/ 10/ 12 1012.2 6/11 7/11 DUCK 2248 59 130/ 6/ 7 1011.7 2 E DUCK 2300 53 N/A 5/13 2/13 OREGON INLET 2248 90/ 2/ 5 1011.9 13E OREGON INLT NOT AVBL HATTERAS CG 2248 68 90/ 6/ 9 1011.2 DIAMOND BUOY 2250 72 77 100/ 14/ 17 1011.0 8/ 8 7/ 8 CAPE LOOKOUT 2300 66 80/ 8/ 8 1010.5 BEAUFORT LAB 2248 70 90/ 5/ 6 1010.0 30 SE NEW RVR IN 2208 69 70/ 6/ 10 1010.6 30 SE NEW RVR IN 2243 70 N/A 7/11 3/11 27 SE WRIGHTSVLE 2208 69 67 60/ 6/ 10 1009.9 5 SE WRIGHTSVLE 2208 63 60 70/ 4/ 8 1010.5 225 S CAPE HAT 2250 69 70 60/ 8/ 10 1006.9 10/11 10/11 41 SE CHARLESTON 2250 69 71 30/ 12/ 14 1009.7 7/10 7/10 $$

USA.gov is the U.S. government's official web portal to all federal, state and local government web resources and services.